Powrót do katalogu

SL-19 DEB

AktywnyUNKNOWN
NORAD 23482·DEBRIS·🇷🇺 Russia

Wystrzelony Dec 26, 1994 z Baikonur Cosmodrome

Loading…

Następne Przeloty (najbliższe 24 godziny)

TLE

ŚwieżeSource: Space-Track

Epoka: Sep 14, 2026, 13:14 UTC

1 23482U 94085E   26257.55154639  .00000391  00000-0  10381-1 0  9992
2 23482  64.6845  87.4723 0380433 166.9167 227.3500 11.30982236306588

Śledź SL-19 DEB w czasie rzeczywistym z AllMySat

Download on the App Store